period_start,C,m1,H,J0,J1,J2,J3,J4,J5,JA,JB,JC,JD,JJ,JK,JN,#
2017-02-09 00:02:35,0.35,7.24,0.00,23.88,26.69,30.30,14.75,51.99,1038.42,2028.01,1670.35,1703.11,1916.22,599.65,606.62,27.58,0000 0000 0000 0000 000000
2017-02-09 00:07:37,0.34,7.26,0.00,23.89,26.68,30.25,14.77,51.96,1038.55,2028.02,1667.68,1701.18,1913.92,599.76,606.84,27.63,0000 0000 0000 0000 000000
2017-02-09 00:12:38,0.36,7.27,0.00,23.81,26.67,30.28,14.80,51.85,1038.56,2028.02,1664.91,1699.18,1911.66,600.22,607.39,27.68,0000 0000 0000 0000 000000
2017-02-09 00:17:39,0.35,7.29,0.00,23.90,26.67,30.28,14.79,51.85,1038.57,2028.01,1662.17,1697.14,1909.32,599.82,606.91,27.73,0000 0000 0000 0000 000000
2017-02-09 00:22:40,0.37,7.31,0.00,23.87,26.67,30.29,14.86,51.88,1038.49,2028.03,1659.37,1695.11,1906.97,600.19,607.37,27.78,0000 0000 0000 0000 000000
2017-02-09 00:27:42,0.37,7.33,0.00,23.88,26.67,30.27,14.82,52.00,1038.45,2028.01,1656.49,1693.03,1904.55,600.13,607.13,27.83,0000 0000 0000 0000 000000
2017-02-09 00:32:43,0.39,7.35,0.00,23.92,26.67,30.28,14.77,51.93,1038.44,2028.03,1653.57,1690.89,1902.06,599.92,606.87,27.88,0000 0000 0000 0000 000000
2017-02-09 00:37:45,0.39,7.37,0.00,23.85,26.67,30.29,14.75,51.93,1038.49,2028.02,1650.55,1688.70,1899.49,599.74,606.87,27.93,0000 0000 0000 0000 000000
2017-02-09 00:42:46,0.40,7.39,0.00,23.91,26.67,30.28,14.87,52.01,1038.46,2028.04,1647.53,1686.45,1896.91,600.21,607.13,27.98,0000 0000 0000 0000 000000
2017-02-09 00:47:47,0.40,7.41,0.00,23.94,26.67,30.30,14.86,52.10,1038.35,2028.04,1644.46,1684.22,1894.29,600.28,607.18,28.03,0000 0000 0000 0000 000000
2017-02-09 00:52:48,0.40,7.43,0.00,23.93,26.66,30.30,14.80,52.13,1038.52,2028.03,1641.40,1682.03,1891.70,600.21,607.32,28.08,0000 0000 0000 0000 000000
2017-02-09 00:57:50,0.41,7.45,0.00,23.89,26.66,30.30,14.83,52.20,1038.59,2028.01,1638.26,1679.78,1889.10,600.07,607.15,28.13,0000 0000 0000 0000 000000
2017-02-09 01:02:51,0.37,7.47,0.00,23.93,26.66,30.30,14.77,52.11,1038.57,2028.03,1635.36,1677.66,1886.60,599.86,606.81,28.18,0000 0000 0000 0000 000000
2017-02-09 01:07:52,0.37,7.49,0.00,23.95,26.66,30.29,14.75,52.06,1038.57,2028.02,1632.54,1675.61,1884.22,599.89,606.81,28.23,0000 0000 0000 0000 000000
2017-02-09 01:12:53,0.37,7.51,0.00,23.87,26.65,30.30,14.83,52.19,1038.56,2028.02,1629.73,1673.60,1881.85,600.06,607.23,28.29,0000 0000 0000 0000 000000
2017-02-09 01:17:55,0.38,7.53,0.00,23.93,26.65,30.29,14.78,52.09,1038.58,2028.02,1626.87,1671.51,1879.41,599.93,606.94,28.34,0000 0000 0000 0000 000000
2017-02-09 01:22:56,0.40,7.55,0.00,23.94,26.65,30.30,14.81,52.12,1038.54,2028.00,1623.88,1669.34,1876.85,600.14,607.02,28.39,0000 0000 0000 0000 000000
2017-02-09 01:27:57,0.39,7.57,0.00,23.92,26.65,30.30,14.82,52.05,1038.52,2028.00,1620.95,1667.18,1874.34,600.19,607.27,28.44,0000 0000 0000 0000 000000
2017-02-09 01:32:59,0.41,7.59,0.00,23.91,26.65,30.31,14.75,52.09,1038.42,2028.00,1617.95,1664.97,1871.78,599.67,606.60,28.49,0000 0000 0000 0000 000000
2017-02-09 01:38:00,0.41,7.61,0.00,23.88,26.65,30.30,14.77,52.22,1038.15,2028.00,1614.90,1662.83,1869.16,599.90,606.77,28.54,0000 0000 0000 0000 000000
2017-02-09 01:43:01,0.45,7.63,0.00,23.92,26.65,30.30,14.83,52.06,1038.13,2028.00,1611.63,1660.46,1866.37,600.26,606.97,28.59,0000 0000 0000 0000 000000
2017-02-09 01:48:03,0.55,7.66,0.00,23.92,26.65,30.28,14.79,52.08,1038.13,2028.00,1607.70,1657.60,1863.12,599.64,606.40,28.64,0000 0000 0000 0000 000000
2017-02-09 01:53:04,0.69,7.69,0.00,23.89,26.65,30.30,14.76,52.02,1038.12,2028.00,1602.86,1654.04,1859.10,600.13,607.03,28.69,0000 0000 0000 0000 000000
2017-02-09 01:58:05,0.87,7.73,0.23,23.89,26.65,30.29,14.82,52.09,1038.13,2028.00,1596.96,1649.43,1854.08,600.09,606.93,28.74,0000 0000 0000 0000 000000
2017-02-09 02:03:06,0.96,7.78,1.00,23.88,26.65,30.29,14.80,52.24,1038.12,2028.00,1590.19,1644.25,1848.44,599.88,606.71,28.79,0000 0000 0000 0000 000000
2017-02-09 02:08:07,0.79,7.82,1.00,23.86,26.65,30.29,14.85,52.23,1038.11,2028.00,1584.11,1639.68,1843.37,599.95,606.81,28.84,0000 0000 0000 0000 000000
2017-02-09 02:13:09,0.74,7.86,1.00,23.88,26.65,30.29,14.83,52.29,1038.10,2028.00,1578.91,1635.75,1838.93,599.95,606.83,28.89,0000 0000 0000 0000 000000
2017-02-09 02:18:10,0.77,7.89,1.00,23.87,26.65,30.29,14.77,52.21,1038.10,2028.00,1573.58,1631.63,1834.31,600.26,607.10,28.94,0000 0000 0000 0000 000000
2017-02-09 02:23:11,0.79,7.93,1.00,23.88,26.66,30.29,14.72,52.26,1038.10,2028.00,1568.06,1627.33,1829.45,599.56,606.46,28.99,0000 0000 0000 0000 000000
2017-02-09 02:28:12,0.71,7.97,1.00,23.89,26.66,30.30,14.83,52.36,1038.10,2028.00,1563.03,1623.50,1825.14,600.46,607.13,29.04,0000 0000 0000 0000 000000
2017-02-09 02:33:14,0.65,8.01,1.00,23.90,26.67,30.29,14.88,52.41,1038.10,2028.00,1558.33,1619.97,1821.10,600.33,607.09,29.09,0000 0000 0000 0000 000000
2017-02-09 02:38:15,0.59,8.04,1.00,23.88,26.67,30.31,14.74,52.34,1038.10,2028.00,1554.13,1616.82,1817.50,599.80,606.62,29.14,0000 0000 0000 0000 000000
2017-02-09 02:43:16,0.48,8.07,1.00,23.89,26.67,30.31,14.79,52.54,1038.10,2028.00,1550.68,1614.21,1814.55,600.16,607.05,29.19,0000 0000 0000 0000 000000
2017-02-09 02:48:18,0.47,8.09,1.00,23.91,26.67,30.31,14.88,52.57,1038.10,2028.00,1547.48,1611.84,1811.81,600.42,607.14,29.24,0000 0000 0000 0000 000000
2017-02-09 02:53:19,0.46,8.11,1.00,23.93,26.67,30.32,14.74,52.52,1038.03,2027.99,1544.21,1609.42,1808.99,599.78,606.45,29.29,0000 0000 0000 0000 000000
2017-02-09 02:58:20,0.47,8.14,1.00,23.97,26.67,30.30,14.82,52.38,1037.94,2027.99,1540.99,1607.05,1806.26,600.49,606.97,29.34,0000 0000 0000 0000 000000
2017-02-09 03:03:21,0.46,8.16,1.00,23.92,26.67,30.31,14.85,52.46,1037.98,2027.99,1537.73,1604.64,1803.49,600.26,606.87,29.39,0000 0000 0000 0000 000000
2017-02-09 03:08:23,0.50,8.18,1.00,23.93,26.67,30.31,14.78,52.46,1037.94,2027.99,1534.43,1602.13,1800.56,599.95,606.65,29.44,0000 0000 0000 0000 000000
2017-02-09 03:13:24,0.48,8.21,1.00,23.94,26.67,30.30,14.76,52.49,1037.75,2027.99,1531.02,1599.57,1797.62,600.00,606.44,29.49,0000 0000 0000 0000 000000
2017-02-09 03:18:26,0.50,8.23,1.00,23.92,26.67,30.31,14.75,52.56,1037.69,2027.99,1527.61,1597.21,1794.67,599.87,606.37,29.54,0000 0000 0000 0000 000000
2017-02-09 03:23:27,0.49,8.26,1.00,23.89,26.67,30.30,14.81,52.61,1037.80,2027.99,1524.19,1594.69,1791.89,600.16,606.82,29.59,0000 0000 0000 0000 000000
2017-02-09 03:28:29,0.49,8.28,0.70,23.95,26.67,30.29,14.83,52.63,1037.82,2027.98,1520.84,1592.18,1789.00,600.20,606.78,29.64,0000 0000 0000 0000 000000
2017-02-09 03:33:30,0.50,8.31,0.00,23.91,26.67,30.30,14.80,52.62,1037.67,2027.98,1517.50,1589.72,1786.13,599.98,606.52,29.69,0000 0000 0000 0000 000000
2017-02-09 03:38:31,0.50,8.33,0.00,23.92,26.67,30.29,14.85,52.64,1037.71,2027.98,1514.07,1587.24,1783.28,600.12,606.61,29.74,0000 0000 0000 0000 000000
2017-02-09 03:43:33,0.46,8.36,0.00,23.94,26.67,30.29,14.81,52.65,1037.83,2027.97,1510.91,1584.90,1780.51,600.13,606.67,29.79,0000 0000 0000 0000 000000
2017-02-09 03:48:34,0.46,8.38,0.00,23.90,26.67,30.28,14.84,52.67,1037.80,2027.98,1507.84,1582.66,1777.89,600.35,606.96,29.84,0000 0000 0000 0000 000000
2017-02-09 03:53:35,0.46,8.40,0.00,23.92,26.67,30.27,14.71,52.58,1037.69,2027.97,1504.68,1580.32,1775.20,599.72,606.22,29.89,0000 0000 0000 0000 000000
2017-02-09 03:58:36,0.49,8.43,0.00,23.94,26.67,30.29,14.80,52.58,1037.65,2027.97,1501.49,1578.00,1772.42,600.13,606.51,29.94,0000 0000 0000 0000 000000
2017-02-09 04:03:37,0.48,8.45,0.00,23.97,26.67,30.30,14.80,52.65,1037.65,2027.97,1498.27,1575.65,1769.71,600.19,606.57,29.99,0000 0000 0000 0000 000000
2017-02-09 04:08:38,0.48,8.48,0.00,23.93,26.67,30.30,14.75,52.65,1037.64,2027.96,1494.92,1573.34,1767.01,600.36,606.82,30.04,0000 0000 0000 0000 000000
2017-02-09 04:13:40,0.56,8.50,0.00,23.98,26.67,30.29,14.83,52.64,1037.63,2027.97,1490.99,1570.81,1764.21,600.46,606.80,30.09,0000 0000 0000 0000 000000
2017-02-09 04:18:41,0.47,8.53,0.00,23.94,26.67,30.29,14.82,52.64,1037.62,2027.96,1487.76,1568.44,1761.40,600.00,606.53,30.14,0000 0000 0000 0000 000000
2017-02-09 04:23:42,0.50,8.55,0.00,23.93,26.67,30.29,14.73,52.85,1037.62,2027.95,1484.54,1566.01,1758.74,599.68,606.10,30.19,0000 0000 0000 0000 000000
2017-02-09 04:28:44,0.52,8.58,0.37,23.96,26.69,30.30,14.80,52.76,1037.62,2027.95,1481.24,1563.52,1755.79,600.12,606.54,30.24,0000 0000 0000 0000 000000
2017-02-09 04:33:45,0.54,8.61,1.00,23.95,26.70,30.31,14.83,52.77,1037.63,2027.98,1477.76,1560.85,1752.73,600.31,606.73,30.29,0000 0000 0000 0000 000000
2017-02-09 04:38:46,0.48,8.63,1.00,23.92,26.70,30.32,14.82,52.83,1037.62,2027.94,1474.52,1558.45,1750.01,600.43,606.81,30.34,0000 0000 0000 0000 000000
2017-02-09 04:43:48,0.48,8.66,1.00,23.97,26.71,30.32,14.77,52.80,1037.62,2027.96,1471.41,1556.11,1747.31,600.22,606.68,30.39,0000 0000 0000 0000 000000
2017-02-09 04:48:49,0.51,8.68,1.00,23.95,26.72,30.33,14.85,52.85,1037.61,2027.97,1468.18,1553.72,1744.54,600.10,606.52,30.44,0000 0000 0000 0000 000000
2017-02-09 04:53:50,0.49,8.71,1.00,23.93,26.72,30.33,14.77,52.91,1037.62,2027.94,1464.93,1551.33,1741.74,599.99,606.48,30.49,0000 0000 0000 0000 000000
2017-02-09 04:58:51,0.51,8.74,1.00,23.89,26.72,30.33,14.87,53.02,1037.63,2027.92,1461.68,1548.90,1738.90,600.25,606.80,30.54,0000 0000 0000 0000 000000
2017-02-09 05:03:52,0.51,8.76,1.00,23.94,26.73,30.33,14.82,52.98,1037.63,2027.93,1458.36,1546.44,1736.07,600.07,606.47,30.59,0000 0000 0000 0000 000000
2017-02-09 05:08:54,0.48,8.78,1.00,23.93,26.74,30.33,14.83,52.98,1037.62,2027.86,1455.17,1544.09,1733.37,599.94,606.38,30.64,0000 0000 0000 0000 000000
2017-02-09 05:13:55,0.48,8.81,1.00,23.92,26.74,30.34,14.83,53.02,1037.62,2027.86,1452.09,1541.81,1730.68,599.96,606.48,30.69,0000 0000 0000 0000 000000
2017-02-09 05:18:56,0.47,8.83,1.00,23.95,26.75,30.34,14.78,53.08,1037.62,2027.85,1449.05,1539.57,1728.13,600.03,606.51,30.74,0000 0000 0000 0000 000000
2017-02-09 05:23:58,0.47,8.86,1.00,23.92,26.75,30.33,14.74,52.98,1037.61,2027.83,1446.06,1537.30,1725.63,600.11,606.54,30.79,0000 0000 0000 0000 000000
2017-02-09 05:28:59,0.47,8.88,0.60,23.88,26.75,30.33,14.80,52.99,1037.62,2027.81,1442.92,1535.23,1722.99,600.21,606.76,30.84,0000 0000 0000 0000 000000
2017-02-09 05:34:00,0.46,8.91,0.00,23.87,26.75,30.26,14.79,52.92,1037.62,2027.81,1439.93,1533.17,1720.38,600.13,606.79,30.89,0000 0000 0000 0000 000000
2017-02-09 05:39:02,0.43,8.93,0.00,23.87,26.74,30.23,14.74,52.92,1037.62,2027.42,1436.75,1530.89,1717.73,599.85,606.51,30.95,0000 0000 0000 0000 000000
2017-02-09 05:44:03,0.49,8.95,0.00,23.87,26.72,30.26,14.78,52.78,1037.61,2027.41,1433.70,1528.63,1715.10,600.06,606.48,31.00,0000 0000 0000 0000 000000
2017-02-09 05:49:04,0.46,8.97,0.00,23.90,26.72,30.28,14.82,52.86,1037.61,2027.38,1430.77,1526.44,1712.50,599.59,606.04,31.05,0000 0000 0000 0000 000000
2017-02-09 05:54:06,0.54,9.00,0.00,23.91,26.72,30.31,14.74,52.91,1037.61,2027.37,1427.63,1524.02,1709.68,599.72,606.19,31.10,0000 0000 0000 0000 000000
2017-02-09 05:59:07,0.46,9.03,0.00,23.91,26.72,30.31,14.90,52.91,1037.60,2027.24,1424.58,1521.67,1706.96,600.50,606.72,31.15,0000 0000 0000 0000 000000
2017-02-09 06:04:08,0.51,9.05,0.00,23.88,26.72,30.30,14.80,52.98,1037.59,2027.11,1421.37,1519.28,1704.16,599.82,606.50,31.20,0000 0000 0000 0000 000000
2017-02-09 06:09:10,0.51,9.08,0.00,23.91,26.72,30.29,14.71,52.85,1037.55,2027.17,1418.24,1516.89,1701.40,600.18,606.49,31.25,0000 0000 0000 0000 000000
2017-02-09 06:14:11,0.49,9.10,0.00,23.85,26.71,30.30,14.84,52.91,1037.57,2027.08,1415.08,1514.56,1698.70,599.92,606.61,31.30,0000 0000 0000 0000 000000
2017-02-09 06:19:12,0.50,9.13,0.00,23.89,26.70,30.28,14.80,52.91,1037.60,2027.08,1412.07,1512.33,1696.04,599.82,606.42,31.35,0000 0000 0000 0000 000000
2017-02-09 06:24:13,0.53,9.15,0.00,23.90,26.70,30.29,14.78,52.83,1037.61,2027.07,1408.88,1509.99,1693.19,599.80,606.26,31.40,0000 0000 0000 0000 000000
2017-02-09 06:29:15,0.49,9.18,0.47,23.88,26.70,30.30,14.80,52.90,1037.61,2027.03,1405.80,1507.64,1690.45,600.27,606.82,31.45,0000 0000 0000 0000 000000
2017-02-09 06:34:16,0.48,9.20,1.00,23.87,26.69,30.29,14.81,52.98,1037.61,2027.11,1402.84,1505.51,1687.98,599.99,606.57,31.50,0000 0000 0000 0000 000000
2017-02-09 06:39:17,0.49,9.23,1.00,23.90,26.67,30.27,14.73,52.94,1037.61,2027.11,1399.93,1503.37,1685.45,599.84,606.24,31.55,0000 0000 0000 0000 000000
2017-02-09 06:44:19,0.49,9.25,1.00,23.87,26.67,30.29,14.77,52.95,1037.61,2027.17,1397.00,1501.21,1683.01,599.98,606.58,31.60,0000 0000 0000 0000 000000
2017-02-09 06:49:20,0.46,9.28,1.00,23.88,26.67,30.30,14.84,52.97,1037.61,2027.12,1394.09,1499.08,1680.55,600.48,607.09,31.65,0000 0000 0000 0000 000000
2017-02-09 06:54:21,0.50,9.30,1.00,23.88,26.66,30.30,14.81,52.98,1037.61,2027.18,1391.24,1497.02,1678.13,599.90,606.39,31.70,0000 0000 0000 0000 000000
2017-02-09 06:59:22,0.46,9.32,0.50,23.91,26.65,30.30,14.78,52.93,1037.61,2027.21,1388.39,1494.95,1675.68,599.69,606.25,31.75,0000 0000 0000 0000 000000
2017-02-09 07:04:24,0.45,9.35,0.00,23.89,26.65,30.29,14.81,53.04,1037.61,2027.12,1385.57,1492.85,1673.25,600.14,606.67,31.80,0000 0000 0000 0000 000000
2017-02-09 07:09:25,0.50,9.37,0.00,23.89,26.65,30.29,14.85,53.02,1037.61,2027.19,1382.78,1490.77,1670.86,599.98,606.58,31.85,0000 0000 0000 0000 000000
2017-02-09 07:14:26,0.46,9.40,0.00,23.88,26.64,30.29,14.76,53.05,1037.61,2027.22,1380.04,1488.79,1668.49,599.69,606.34,31.90,0000 0000 0000 0000 000000
2017-02-09 07:19:28,0.46,9.42,0.00,23.90,26.63,30.27,14.79,52.91,1037.61,2027.14,1377.25,1486.72,1666.07,599.92,606.39,31.95,0000 0000 0000 0000 000000
2017-02-09 07:24:29,0.47,9.44,0.00,23.84,26.62,30.28,14.86,53.08,1037.61,2027.19,1374.45,1484.68,1663.75,600.14,606.74,32.00,0000 0000 0000 0000 000000
2017-02-09 07:29:30,0.45,9.46,0.00,23.87,26.62,30.29,14.80,52.96,1037.61,2027.31,1371.69,1482.71,1661.50,600.08,606.74,32.05,0000 0000 0000 0000 000000
2017-02-09 07:34:32,0.45,9.49,0.00,23.83,26.62,30.26,14.85,53.17,1037.61,2027.21,1368.87,1480.70,1659.18,600.19,606.80,32.10,0000 0000 0000 0000 000000
2017-02-09 07:39:33,0.48,9.51,0.00,23.83,26.61,30.28,14.82,53.20,1037.61,2027.33,1366.02,1478.72,1656.89,600.26,606.87,32.15,0000 0000 0000 0000 000000
2017-02-09 07:44:34,0.46,9.54,0.00,23.83,26.60,30.28,14.83,53.13,1037.61,2027.30,1363.31,1476.71,1654.58,600.07,606.75,32.20,0000 0000 0000 0000 000000
2017-02-09 07:49:35,0.44,9.56,0.00,23.84,26.60,30.26,14.72,53.02,1037.61,2027.25,1360.60,1474.78,1652.34,600.10,606.68,32.25,0000 0000 0000 0000 000000
2017-02-09 07:54:36,0.45,9.58,0.00,23.84,26.60,30.26,14.81,53.13,1037.61,2027.30,1357.96,1472.81,1650.06,600.20,606.86,32.30,0000 0000 0000 0000 000000
2017-02-09 07:59:38,0.47,9.60,0.00,23.85,26.60,30.26,14.76,53.02,1037.61,2027.31,1355.22,1470.96,1647.77,599.74,606.45,32.35,0000 0000 0000 0000 000000
2017-02-09 08:04:39,0.42,9.63,0.00,23.83,26.60,30.28,14.83,53.14,1037.61,2027.28,1352.54,1469.11,1645.49,600.18,606.82,32.40,0000 0000 0000 0000 000000
2017-02-09 08:09:41,0.46,9.65,0.00,23.84,26.60,30.28,14.81,53.15,1037.60,2027.22,1349.80,1467.11,1643.16,599.83,606.43,32.45,0000 0000 0000 0000 000000
2017-02-09 08:14:42,0.45,9.68,0.00,23.84,26.60,30.29,14.76,53.10,1037.60,2027.24,1347.17,1465.15,1640.95,599.81,606.49,32.50,0000 0000 0000 0000 000000
2017-02-09 08:19:43,0.48,9.70,0.00,23.84,26.60,30.27,14.82,53.14,1037.61,2027.29,1344.47,1463.19,1638.65,600.24,606.88,32.55,0000 0000 0000 0000 000000
2017-02-09 08:24:44,0.40,9.72,0.00,23.83,26.60,30.28,14.80,53.12,1037.61,2027.20,1341.99,1461.29,1636.39,599.98,606.58,32.60,0000 0000 0000 0000 000000
2017-02-09 08:29:46,0.44,9.74,0.00,23.83,26.59,30.28,14.86,53.24,1037.61,2027.12,1339.35,1459.38,1634.19,600.13,606.71,32.66,0000 0000 0000 0000 000000
2017-02-09 08:34:47,0.44,9.77,0.00,23.84,26.60,30.27,14.86,53.17,1037.61,2027.12,1336.76,1457.51,1632.04,600.34,606.95,32.71,0000 0000 0000 0000 000000
2017-02-09 08:39:48,0.45,9.79,0.00,23.81,26.60,30.29,14.85,53.15,1037.61,2027.07,1334.17,1455.62,1629.79,599.92,606.55,32.76,0000 0000 0000 0000 000000
2017-02-09 08:44:50,0.45,9.81,0.00,23.85,26.60,30.29,14.76,53.16,1037.61,2027.07,1331.54,1453.74,1627.62,599.75,606.33,32.81,0000 0000 0000 0000 000000
2017-02-09 08:49:51,0.43,9.83,0.00,23.84,26.60,30.30,14.78,53.17,1037.60,2027.10,1329.03,1451.90,1625.45,600.30,606.89,32.86,0000 0000 0000 0000 000000
2017-02-09 08:54:52,0.44,9.86,0.00,23.83,26.60,30.29,14.84,53.15,1037.55,2027.07,1326.41,1450.05,1623.32,599.81,606.45,32.91,0000 0000 0000 0000 000000
2017-02-09 08:59:53,0.43,9.88,0.00,23.84,26.60,30.29,14.66,53.08,1037.51,2027.04,1323.88,1448.20,1621.17,599.81,606.32,32.96,0000 0000 0000 0000 000000
2017-02-09 09:04:55,0.45,9.90,0.00,23.85,26.60,30.29,14.76,53.08,1037.47,2027.03,1321.30,1446.35,1618.99,600.09,606.62,33.01,0000 0000 0000 0000 000000
2017-02-09 09:09:56,0.45,9.92,0.00,23.84,26.60,30.29,14.80,53.18,1037.43,2027.06,1318.71,1444.48,1616.85,600.08,606.61,33.06,0000 0000 0000 0000 000000
2017-02-09 09:14:57,0.45,9.95,0.00,23.83,26.60,30.30,14.76,53.25,1037.46,2027.01,1316.16,1442.62,1614.67,599.62,606.11,33.11,0000 0000 0000 0000 000000
2017-02-09 09:19:59,0.43,9.97,0.00,23.85,26.60,30.29,14.81,53.25,1037.42,2027.02,1313.63,1440.76,1612.52,600.13,606.60,33.16,0000 0000 0000 0000 000000
2017-02-09 09:25:00,0.45,9.99,0.00,23.86,26.60,30.30,14.81,53.34,1037.40,2027.02,1311.12,1438.93,1610.40,599.91,606.31,33.21,0000 0000 0000 0000 000000
2017-02-09 09:30:01,0.42,10.01,0.00,23.80,26.60,30.30,14.76,53.26,1037.31,2027.02,1308.62,1437.10,1608.31,599.94,606.46,33.26,0000 0000 0000 0000 000000
2017-02-09 09:35:03,0.43,10.04,0.00,23.80,26.60,30.28,14.75,53.25,1037.27,2027.02,1306.19,1435.37,1606.27,599.78,606.36,33.31,0000 0000 0000 0000 000000
2017-02-09 09:40:04,0.43,10.06,0.00,23.77,26.60,30.30,14.78,53.17,1037.36,2027.02,1303.79,1433.61,1604.24,599.77,606.43,33.36,0000 0000 0000 0000 000000
2017-02-09 09:45:06,0.42,10.08,0.00,23.77,26.60,30.29,14.84,53.20,1037.39,2027.02,1301.41,1431.90,1602.27,599.97,606.54,33.41,0000 0000 0000 0000 000000
2017-02-09 09:50:07,0.42,10.10,0.00,23.80,26.60,30.30,14.77,53.17,1037.48,2027.03,1299.06,1430.15,1600.23,599.89,606.55,33.47,0000 0000 0000 0000 000000
2017-02-09 09:55:09,0.39,10.12,0.00,23.77,26.60,30.29,14.81,53.26,1037.55,2027.01,1296.65,1428.47,1598.41,600.14,606.86,33.52,0000 0000 0000 0000 000000
2017-02-09 10:00:10,0.44,10.14,0.00,23.78,26.60,30.29,14.86,53.37,1037.58,2027.02,1294.25,1426.72,1596.41,600.07,606.76,33.57,0000 0000 0000 0000 000000
2017-02-09 10:05:12,0.42,10.17,0.00,23.77,26.60,30.30,14.83,53.22,1037.59,2027.02,1291.86,1424.98,1594.42,600.24,606.92,33.62,0000 0000 0000 0000 000000
2017-02-09 10:10:13,0.41,10.19,0.00,23.75,26.60,30.30,14.87,53.26,1037.59,2027.02,1289.44,1423.26,1592.40,599.89,606.69,33.67,0000 0000 0000 0000 000000
2017-02-09 10:15:14,0.44,10.21,0.00,23.72,26.60,30.30,14.84,53.40,1037.59,2027.01,1287.06,1421.54,1590.38,600.17,607.03,33.72,0000 0000 0000 0000 000000
2017-02-09 10:20:16,0.42,10.23,0.00,23.73,26.60,30.29,14.77,53.44,1037.59,2027.00,1284.70,1419.81,1588.36,599.62,606.66,33.77,0000 0000 0000 0000 000000
2017-02-09 10:25:17,0.41,10.25,0.00,23.74,26.59,30.29,14.86,53.45,1037.57,2027.01,1282.38,1418.10,1586.39,600.09,606.87,33.82,0000 0000 0000 0000 000000
2017-02-09 10:30:18,0.42,10.27,0.00,23.69,26.59,30.30,14.86,53.62,1037.50,2027.00,1280.09,1416.49,1584.51,600.37,607.26,33.87,0000 0000 0000 0000 000000
2017-02-09 10:35:20,0.41,10.29,0.00,23.73,26.58,30.28,14.83,53.63,1037.31,2027.00,1277.98,1414.83,1582.60,600.15,606.87,33.92,0000 0000 0000 0000 000000
2017-02-09 10:40:21,0.38,10.31,0.00,23.71,26.58,30.29,14.77,53.55,1037.29,2027.01,1275.78,1413.24,1580.70,599.94,606.60,33.97,0000 0000 0000 0000 000000
2017-02-09 10:45:22,0.42,10.33,0.00,23.72,26.57,30.30,14.82,53.57,1037.38,2027.01,1273.50,1411.60,1578.78,600.06,606.81,34.02,0000 0000 0000 0000 000000
2017-02-09 10:50:23,0.43,10.36,0.00,23.72,26.57,30.29,14.87,53.59,1037.37,2027.01,1271.24,1409.89,1576.90,600.30,607.04,34.07,0000 0000 0000 0000 000000
2017-02-09 10:55:25,0.39,10.38,0.00,23.70,26.57,30.30,14.84,53.65,1037.30,2027.01,1268.97,1408.34,1575.00,599.90,606.62,34.12,0000 0000 0000 0000 000000
2017-02-09 11:00:26,0.42,10.40,0.00,23.69,26.57,30.29,14.81,53.69,1037.30,2027.01,1266.70,1406.73,1573.07,599.99,606.63,34.17,0000 0000 0000 0000 000000
2017-02-09 11:05:27,0.39,10.42,0.00,23.70,26.57,30.30,14.79,53.73,1037.27,2027.00,1264.40,1405.14,1571.20,599.71,606.46,34.22,0000 0000 0000 0000 000000
2017-02-09 11:10:29,0.41,10.44,0.00,23.67,26.57,30.30,14.85,53.68,1037.32,2027.02,1262.20,1403.56,1569.34,599.98,606.78,34.27,0000 0000 0000 0000 000000
2017-02-09 11:15:30,0.42,10.46,0.00,23.69,26.57,30.29,14.83,53.65,1037.30,2027.01,1260.00,1401.91,1567.49,599.98,606.74,34.32,0000 0000 0000 0000 000000
2017-02-09 11:20:31,0.39,10.48,0.00,23.70,26.57,30.30,14.91,53.73,1037.24,2027.01,1257.80,1400.39,1565.66,600.39,607.24,34.37,0000 0000 0000 0000 000000
2017-02-09 11:25:32,0.41,10.50,0.00,23.67,26.57,30.30,14.82,53.70,1037.32,2027.01,1255.63,1398.79,1563.79,599.98,606.79,34.43,0000 0000 0000 0000 000000
2017-02-09 11:30:34,0.37,10.52,0.00,23.66,26.57,30.29,14.71,53.67,1037.25,2027.00,1253.51,1397.27,1561.99,599.61,606.39,34.48,0000 0000 0000 0000 000000
2017-02-09 11:35:35,0.39,10.54,0.00,23.63,26.57,30.30,14.81,53.59,1037.22,2027.01,1251.44,1395.76,1560.27,600.10,606.88,34.53,0000 0000 0000 0000 000000
2017-02-09 11:40:36,0.38,10.56,0.00,23.65,26.57,30.28,14.83,53.64,1037.16,2027.02,1249.37,1394.28,1558.54,600.22,607.02,34.58,0000 0000 0000 0000 000000
2017-02-09 11:45:37,0.42,10.58,0.00,23.66,26.57,30.29,14.88,53.73,1037.14,2027.01,1247.23,1392.71,1556.73,599.96,606.73,34.63,0000 0000 0000 0000 000000
2017-02-09 11:50:39,0.40,10.60,0.00,23.65,26.57,30.31,14.90,53.81,1037.13,2027.02,1245.04,1391.20,1554.97,599.83,606.60,34.68,0000 0000 0000 0000 000000
2017-02-09 11:55:40,0.42,10.62,0.00,23.64,26.57,30.29,14.86,53.79,1037.13,2027.00,1242.80,1389.55,1553.03,600.10,606.82,34.73,0000 0000 0000 0000 000000
2017-02-09 12:00:42,0.38,10.64,0.00,23.62,26.57,30.32,14.89,53.79,1037.13,2027.01,1240.67,1388.01,1551.32,599.97,606.84,34.78,0000 0000 0000 0000 000000
2017-02-09 12:05:43,0.42,10.67,0.00,23.63,26.57,30.30,14.93,53.83,1037.13,2027.02,1238.46,1386.48,1549.49,600.56,607.37,34.83,0000 0000 0000 0000 000000
2017-02-09 12:10:44,0.43,10.69,0.00,23.64,26.57,30.30,14.85,53.83,1037.13,2027.01,1236.19,1384.86,1547.59,599.71,606.46,34.88,0000 0000 0000 0000 000000
2017-02-09 12:15:46,0.41,10.71,0.00,23.61,26.57,30.30,14.80,53.78,1037.13,2027.01,1233.97,1383.35,1545.74,599.88,606.62,34.93,0000 0000 0000 0000 000000
2017-02-09 12:20:47,0.41,10.73,0.00,23.57,26.57,30.30,14.89,53.98,1037.13,2027.01,1231.81,1381.75,1543.92,600.33,607.29,34.98,0000 0000 0000 0000 000000
2017-02-09 12:25:48,0.39,10.75,0.00,23.63,26.57,30.31,14.80,53.93,1037.13,2027.02,1229.61,1380.25,1542.17,600.16,606.96,35.03,0000 0000 0000 0000 000000
2017-02-09 12:30:49,0.42,10.77,0.00,23.59,26.57,30.29,14.90,53.89,1037.13,2027.04,1227.44,1378.66,1540.34,600.31,607.21,35.08,0000 0000 0000 0000 000000
2017-02-09 12:35:51,0.40,10.79,0.00,23.58,26.57,30.29,14.81,53.93,1037.12,2027.01,1225.28,1377.08,1538.56,599.86,606.70,35.13,0000 0000 0000 0000 000000
2017-02-09 12:40:52,0.40,10.81,0.00,23.59,26.57,30.29,14.79,53.85,1037.12,2027.05,1223.22,1375.63,1536.85,599.98,606.78,35.18,0000 0000 0000 0000 000000
2017-02-09 12:45:53,0.38,10.83,0.00,23.59,26.57,30.30,14.78,53.86,1037.12,2027.03,1221.13,1374.04,1535.17,600.08,606.93,35.23,0000 0000 0000 0000 000000
2017-02-09 12:50:55,0.41,10.85,0.00,23.59,26.57,30.31,14.88,53.94,1037.12,2027.03,1219.05,1372.55,1533.53,600.28,607.11,35.29,0000 0000 0000 0000 000000
2017-02-09 12:55:56,0.41,10.87,0.00,23.59,26.57,30.29,14.89,53.92,1037.10,2027.01,1216.92,1370.97,1531.75,600.26,607.09,35.34,0000 0000 0000 0000 000000